Temperature
10 11 11 12 12 12 13 13 13 13 11 11 12 13 14 13 12 12 12 12 11 11 10 10 10 10 10 10 10 9 9 9 9 9 9 9 9 9 8 8 8 8 8 8
9 10 11 11 11 11 11 12 13 11 10 11 12 12 13 13 12 12 12 12 11 11 10 9 9 9 9 9 9 9 9 9 9 9 9 9 8 8 8 8 8 8 8 8
10 10 10 10 9 10 11 12 12 12 10 10 10 13 14 13 12 11 11 11 11 11 10 9 9 9 9 9 9 9 9 9 9 9 8 8 8 8 8 8 8 7 7 7
10 9 9 9 10 10 10 10 10 10 11 12 11 14 15 13 12 11 11 11 11 10 10 9 9 9 9 9 9 9 9 9 9 8 8 8 7 7 7 7 7 7 7 7
9 8 8 9 9 10 10 9 9 10 10 10 11 10 15 13 13 13 12 11 10 9 9 9 9 9 9 9 9 9 9 8 8 8 8 7 7 7 7 7 7 6 6 6
8 8 8 9 8 9 8 8 8 9 10 9 11 11 14 14 13 13 12 10 9 9 8 9 9 9 9 9 9 9 8 8 8 8 7 7 7 7 6 6 6 6 6 6
7 7 7 7 7 7 8 9 9 9 9 11 10 10 13 13 12 11 11 10 9 8 8 8 8 8 8 8 9 8 8 8 8 7 7 7 7 6 6 6 6 6 6 5
8 8 7 7 8 8 8 9 10 11 12 12 8 10 13 11 10 9 9 8 8 7 7 7 8 8 8 8 8 8 8 7 7 7 7 7 6 6 6 6 5 5 5 5
8 8 6 6 7 8 8 9 10 9 9 11 12 11 11 10 10 9 9 8 8 7 7 7 7 7 8 8 8 8 7 7 7 7 6 6 6 6 6 5 5 5 5 5
7 7 5 5 6 6 7 8 8 9 10 11 12 12 13 11 11 10 9 9 8 7 7 7 7 7 7 7 7 7 7 7 6 6 6 6 6 6 5 5 5 5 5 4
6 6 5 5 5 6 6 6 7 9 9 11 12 13 11 10 10 10 9 8 7 7 6 7 7 7 7 7 7 7 7 6 6 6 6 5 5 5 5 5 5 5 4 4
5 6 5 5 4 4 6 7 7 8 7 8 11 12 9 8 8 8 8 7 7 6 6 6 7 7 7 7 6 6 6 6 6 6 5 5 5 5 5 5 4 4 4 4
4 4 5 5 4 3 3 4 5 5 7 8 10 11 8 8 8 7 7 7 6 6 6 6 6 6 6 6 6 6 6 5 5 5 5 5 5 5 5 4 4 4 4 3
4 4 6 7 7 5 3 3 4 5 7 8 9 10 9 9 8 8 7 7 6 6 6 6 6 6 6 6 6 6 5 5 5 5 5 5 5 4 4 4 4 3 3 3
4 4 4 5 5 4 4 4 3 4 7 8 9 9 9 9 8 7 7 6 6 5 5 5 5 5 5 5 5 5 5 5 5 5 5 4 4 4 4 3 3 3 3 3
3 3 4 4 4 4 4 4 4 5 6 6 7 7 8 8 7 7 6 5 5 5 5 5 5 5 5 5 5 5 5 4 4 4 4 4 4 3 3 3 3 2 2 2
2 2 3 5 4 4 5 5 4 4 5 6 7 8 7 6 6 6 6 5 5 4 4 4 4 4 5 5 5 5 4 4 4 4 3 3 3 3 2 2 2 2 2 1
1 2 3 3 3 4 6 5 5 5 5 5 5 6 6 6 5 5 5 5 4 4 4 4 4 4 4 4 4 4 4 3 3 3 3 2 2 2 2 2 1 1 1 1
2 2 3 3 4 5 5 4 4 4 4 4 4 5 5 4 4 4 4 4 4 4 4 4 4 4 4 4 3 3 3 3 2 2 2 2 2 1 1 1 1 1 1 1
1 1 2 3 4 5 6 4 3 4 4 5 4 4 4 3 5 6 3 3 3 3 3 3 3 3 3 3 3 3 2 2 2 2 2 1 1 1 1 1 1 0 0 0
1 1 2 2 3 5 4 2 3 5 5 4 3 3 3 3 4 3 3 3 3 3 3 3 3 3 2 2 2 2 2 1 1 1 1 1 1 1 0 0 0 -0 -0 -0
2 2 2 2 3 4 2 2 3 4 3 2 2 2 2 2 2 2 2 2 2 2 2 2 2 2 2 1 1 1 1 1 1 1 1 0 0 -0 -0 -0 -1 -1 -1 -1
1 2 2 3 3 2 1 2 2 1 1 1 1 1 1 1 1 1 1 1 1 1 1 1 1 1 1 1 1 0 0 0 0 -0 -0 -0 -0 -1 -1 -1 -1 -1 -1 -2
0 0 1 1 2 1 0 0 1 1 1 1 1 1 1 0 0 0 1 1 1 1 1 0 0 0 0 -0 -0 -0 -0 -0 -1 -1 -1 -1 -1 -1 -1 -1 -2 -2 -2 -3
0 -0 0 1 1 0 0 -0 -0 0 0 0 0 0 0 0 0 0 -0 -0 -0 -0 -0 -0 -0 -0 -1 -1 -1 -1 -1 -1 -1 -1 -2 -2 -2 -2 -2 -2 -2 -2 -3 -3
-1 -1 0 1 1 1 0 -1 -0 -0 -0 -0 -0 -0 -0 -0 -0 -1 -1 -1 -1 -1 -1 -1 -1 -1 -1 -1 -1 -1 -2 -2 -2 -2 -2 -2 -3 -3 -3 -3 -3 -3 -3 -3
Wind_Speed
8 9 13 16 16 6 5 8 8 4 2 6 11 15 14 11 11 13 13 14 14 14 13 11 11 10 9 8 8 7 6 5 4 3 3 2 2 2 2 3 3 4 4 5
8 14 13 9 10 9 8 8 8 3 2 5 9 15 15 13 15 15 15 15 15 14 13 12 11 10 10 9 8 8 7 6 6 4 3 3 3 3 3 3 4 5 5 5
14 5 9 11 11 12 12 12 9 6 2 4 6 10 10 8 10 11 13 14 14 14 14 13 12 11 11 10 9 8 8 7 6 5 3 2 2 2 3 3 4 4 5 5
11 7 8 11 13 13 11 8 8 7 6 5 3 6 6 6 7 9 11 12 13 13 13 12 12 11 11 10 8 8 8 7 6 5 5 5 4 4 4 4 4 5 5 6
8 9 10 12 10 12 5 4 6 7 7 6 6 6 7 4 7 9 10 11 11 11 12 12 11 10 10 9 8 7 7 7 6 6 6 6 5 4 3 4 5 5 5 6
5 4 6 6 4 9 9 7 4 3 4 7 9 9 8 6 6 6 6 7 9 9 10 10 9 8 8 8 7 7 7 7 6 6 6 6 6 5 5 5 5 5 5 5
8 6 4 5 7 9 9 7 4 4 6 8 5 7 8 3 3 4 4 4 5 7 8 9 9 8 8 8 8 7 7 7 6 6 6 6 6 6 6 6 5 6 5 5
11 9 11 8 8 10 14 10 7 7 7 5 5 9 5 1 2 3 3 3 4 6 6 7 8 8 7 7 7 7 7 7 6 6 6 6 6 5 5 5 6 6 6 6
10 8 5 6 4 8 10 10 4 1 1 4 6 5 6 4 3 3 4 4 5 6 6 6 6 6 6 7 7 7 7 7 6 6 6 6 5 5 5 6 6 6 6 7
4 5 5 5 4 2 4 7 6 6 6 8 6 7 5 5 5 4 4 5 5 4 5 5 5 5 5 6 6 6 6 6 6 5 5 4 5 5 5 6 6 7 8 8
4 4 5 6 9 10 7 7 6 6 5 6 6 4 0 3 3 3 4 5 4 4 4 4 4 4 4 5 5 5 5 5 5 5 5 5 5 5 5 6 6 7 8 8
5 4 4 5 1 3 7 8 8 7 6 5 5 2 2 0 0 2 3 3 3 3 3 3 3 3 4 4 4 4 4 5 4 4 4 5 5 5 5 6 7 7 8 9
6 5 5 4 4 4 5 7 7 3 3 6 7 4 2 1 1 2 3 3 3 3 3 2 3 3 3 3 4 4 4 4 3 3 4 4 5 5 6 7 7 8 8 9
4 4 6 8 4 7 7 9 10 8 7 8 9 6 3 2 2 2 2 2 2 2 3 2 2 3 3 3 3 3 3 3 3 3 3 4 5 5 6 7 8 8 9 9
3 4 5 3 1 5 6 11 14 14 12 11 10 10 8 6 3 2 2 2 2 2 2 2 2 2 3 3 3 2 2 2 2 3 3 4 5 5 6 7 8 9 9 10
2 3 4 3 3 4 5 9 14 15 13 14 10 11 7 5 4 4 3 3 3 3 3 3 3 3 3 3 3 2 2 2 2 3 3 4 5 6 6 7 8 9 10 10
3 4 4 4 3 2 8 11 13 10 11 11 14 12 5 5 6 5 4 4 4 4 3 4 4 4 4 3 3 3 3 2 3 3 4 4 5 6 7 8 9 9 10 10
5 4 3 3 4 8 5 2 9 11 10 11 9 6 6 6 4 3 4 4 4 4 4 4 3 3 3 2 2 2 2 2 3 3 4 4 5 7 8 8 9 10 9 9
7 6 3 4 6 8 5 3 5 8 7 8 10 8 5 2 2 3 3 3 4 4 4 3 2 2 2 2 2 1 2 2 3 4 4 5 6 7 8 8 10 10 9 9
5 5 4 4 6 7 2 1 3 5 4 3 6 6 4 4 5 3 1 2 2 2 1 1 1 1 1 1 1 2 2 3 4 4 5 5 6 7 7 8 9 9 9 9
5 5 7 6 6 5 2 1 6 6 2 1 3 4 4 4 3 0 1 1 1 1 1 0 0 0 1 1 1 2 2 3 4 4 5 5 6 6 7 8 8 8 8 9
6 6 6 5 6 5 2 5 5 0 2 1 1 2 3 2 1 0 1 1 1 1 1 1 0 1 1 1 1 2 3 3 4 4 5 5 6 6 6 7 7 8 8 8
5 4 3 5 4 1 4 3 1 1 1 1 0 0 1 2 1 0 0 1 1 1 1 1 1 1 2 2 1 2 3 4 4 4 5 6 6 6 6 6 7 7 7 6
3 2 3 3 4 2 2 1 1 1 2 2 1 0 1 2 2 1 0 0 1 1 1 1 1 1 2 3 2 3 3 3 4 5 5 6 6 6 6 5 5 6 6 6
2 3 3 4 3 2 2 2 2 2 1 1 2 1 1 1 1 1 1 0 0 1 1 1 1 2 3 3 3 3 3 3 4 5 5 5 5 6 6 6 5 6 6 6
2 3 4 4 3 3 3 3 2 1 2 2 1 1 0 1 1 1 1 0 0 1 1 1 2 2 3 3 4 4 4 3 4 4 5 5 5 5 5 6 6 6 7 9
Wind_Direction
180 198 208 206 209 232 214 213 224 217 184 226 241 255 258 244 235 232 222 215 213 213 208 198 197 195 194 192 192 191 192 193 192 196 206 223 244 257 264 269 277 284 293 297
182 220 220 206 204 210 212 218 229 226 208 244 265 267 264 248 234 230 225 218 214 211 204 198 197 198 198 196 195 195 196 197 199 205 214 225 239 254 262 264 270 278 285 289
204 201 193 191 193 206 221 229 232 232 234 238 280 272 243 231 225 227 227 223 217 211 206 198 197 200 200 200 199 201 200 200 203 203 203 206 231 254 261 269 276 277 283 285
219 203 180 191 203 205 225 226 224 222 231 242 246 273 248 216 220 221 218 216 215 209 205 198 196 197 200 201 200 204 202 202 201 200 207 214 232 251 263 271 275 282 282 285
204 192 190 201 207 201 200 167 197 218 231 257 228 245 258 214 232 220 212 211 208 204 202 198 198 198 199 198 198 202 202 204 204 208 215 226 239 254 266 273 275 283 285 284
204 189 207 205 190 181 142 128 124 181 219 244 225 222 254 216 217 201 195 199 200 199 199 198 196 196 196 193 195 199 201 206 207 213 221 230 242 255 265 272 278 284 286 285
203 200 189 170 152 164 178 166 170 194 213 233 179 222 246 224 213 214 200 194 188 188 191 193 191 194 194 194 197 199 203 208 211 217 226 234 243 251 256 267 275 283 286 288
198 203 191 188 189 181 192 196 202 210 220 213 193 230 235 179 266 252 234 210 188 182 185 190 193 195 196 198 199 202 207 213 216 222 231 238 244 251 258 265 274 279 283 287
201 199 163 183 189 179 178 208 224 183 307 243 221 243 269 228 238 215 196 184 183 183 185 189 191 194 199 200 203 204 208 216 221 227 234 240 244 253 263 271 275 280 283 288
196 185 165 162 153 174 207 171 170 197 209 232 234 236 221 192 189 174 175 178 175 178 182 186 189 194 202 203 203 204 212 219 225 229 235 244 250 259 268 273 278 283 285 286
193 169 155 173 198 188 169 182 197 196 233 230 232 223 139 205 187 180 176 173 173 174 177 184 189 196 200 200 200 207 216 221 226 232 241 250 259 267 273 277 283 287 288 287
184 179 183 193 175 259 209 199 189 199 209 227 242 228 73 149 180 167 152 150 152 162 173 181 183 188 193 198 206 213 218 222 229 237 248 258 266 273 278 284 289 290 290 289
162 171 169 177 193 196 211 208 209 208 183 205 221 212 105 70 130 146 149 144 146 161 170 173 180 190 197 202 212 219 224 230 237 242 252 264 273 279 284 289 292 292 292 291
167 187 217 219 202 175 194 201 200 199 214 221 233 235 229 227 193 174 166 165 158 165 176 185 196 203 206 213 217 225 239 240 247 251 258 269 278 284 288 291 292 293 293 292
195 210 214 242 207 174 200 201 199 209 220 229 237 234 234 237 234 214 195 181 188 197 207 217 223 223 223 224 228 236 245 248 250 257 267 277 287 292 294 295 296 297 296 295
193 202 191 225 213 212 229 217 208 218 227 236 250 254 251 246 249 249 231 214 223 224 231 246 251 250 246 236 235 238 246 256 256 264 278 291 297 300 301 301 302 302 301 299
183 179 192 221 209 233 247 225 208 212 217 220 234 245 228 230 240 244 237 226 230 240 250 253 259 263 261 250 237 237 245 254 262 275 289 298 302 302 303 305 305 304 303 302
192 196 202 186 177 230 246 214 205 213 228 225 237 247 234 240 244 258 247 237 240 248 255 262 270 273 269 256 250 252 247 252 270 284 295 304 306 304 306 306 306 306 305 302
203 191 190 194 220 252 261 209 194 202 238 233 232 244 244 219 245 251 236 241 250 254 256 259 264 264 260 251 245 242 257 270 280 290 300 305 305 304 305 305 308 309 308 304
192 195 197 203 215 231 255 184 194 177 235 236 216 226 224 178 219 233 5 275 266 271 248 246 261 255 255 258 231 230 257 274 286 295 299 302 302 299 300 304 307 307 305 301
177 189 207 217 229 249 309 160 163 192 222 21 201 204 190 199 234 15 360 342 325 5 26 126 175 248 298 283 243 251 272 284 298 303 302 303 304 303 304 306 307 308 306 304
184 181 192 202 216 230 110 147 179 220 29 41 119 169 185 197 169 56 11 20 41 47 39 36 42 357 346 323 270 276 289 304 310 307 304 305 309 310 308 309 310 308 306 306
210 208 197 202 218 346 156 169 166 28 6 355 349 311 180 181 199 223 356 30 45 53 41 21 24 359 344 328 298 288 305 313 309 307 307 310 311 311 308 308 309 310 309 309
223 236 209 216 240 256 220 261 308 331 342 348 2 28 180 204 206 189 147 89 72 39 29 26 16 350 342 343 327 308 310 310 305 306 308 310 312 312 314 311 308 308 308 307
221 191 207 235 267 286 268 279 293 314 342 356 360 3 204 186 194 183 174 170 78 7 360 354 335 321 324 333 332 328 320 312 308 307 307 309 310 310 311 310 306 303 301 303
225 220 225 244 241 241 262 285 307 309 309 312 329 345 356 192 189 177 180 230 339 341 335 324 314 309 313 322 326 329 323 313 306 304 305 307 310 314 313 314 311 302 299 310
Height
1473 1473 1468 1466 1469 1469 1468 1468 1468 1471 1478 1478 1473 1469 1466 1469 1471 1471 1472 1473 1475 1478 1481 1483 1485 1488 1490 1491 1493 1494 1495 1496 1497 1497 1497 1497 1496 1496 1495 1495 1494 1492 1491 1489
1471 1466 1464 1468 1470 1472 1471 1470 1468 1474 1479 1477 1471 1466 1461 1462 1463 1465 1466 1468 1470 1473 1477 1479 1481 1483 1485 1487 1489 1490 1492 1492 1493 1493 1494 1494 1493 1493 1492 1491 1490 1489 1488 1486
1458 1461 1465 1468 1470 1471 1470 1468 1467 1470 1476 1477 1473 1456 1451 1453 1458 1460 1461 1463 1465 1468 1471 1473 1476 1478 1481 1483 1485 1486 1488 1489 1490 1490 1490 1490 1490 1489 1489 1488 1487 1486 1484 1483
1459 1462 1465 1465 1465 1466 1466 1469 1472 1473 1471 1465 1470 1455 1442 1447 1452 1454 1455 1457 1459 1462 1466 1469 1471 1474 1476 1478 1481 1483 1484 1485 1486 1486 1487 1486 1486 1485 1485 1484 1483 1482 1480 1479
1456 1460 1462 1462 1462 1465 1466 1471 1473 1472 1471 1470 1467 1467 1441 1446 1446 1446 1449 1452 1454 1457 1461 1464 1467 1469 1472 1475 1476 1478 1480 1481 1482 1483 1483 1483 1483 1482 1481 1480 1479 1478 1476 1474
1456 1460 1461 1460 1464 1466 1471 1473 1475 1473 1470 1470 1458 1459 1438 1437 1438 1441 1445 1448 1451 1454 1457 1460 1463 1466 1469 1471 1472 1474 1476 1477 1478 1479 1479 1479 1479 1478 1477 1476 1475 1473 1472 1470
1455 1458 1461 1462 1463 1468 1467 1466 1468 1469 1468 1454 1458 1456 1438 1435 1440 1441 1444 1446 1449 1451 1454 1456 1459 1462 1464 1466 1468 1470 1472 1473 1474 1475 1475 1476 1475 1474 1473 1472 1471 1469 1467 1465
1446 1447 1454 1457 1455 1456 1459 1457 1455 1452 1446 1442 1461 1450 1434 1439 1441 1442 1444 1445 1447 1449 1451 1453 1456 1458 1460 1462 1464 1466 1468 1469 1470 1471 1471 1472 1471 1470 1469 1468 1467 1465 1463 1461
1437 1442 1453 1455 1456 1454 1457 1455 1454 1454 1457 1447 1439 1440 1436 1437 1439 1440 1442 1443 1445 1447 1449 1451 1453 1455 1457 1459 1461 1463 1464 1466 1466 1467 1467 1467 1467 1466 1465 1464 1462 1460 1458 1456
1439 1443 1452 1456 1457 1458 1455 1453 1457 1454 1449 1438 1433 1433 1425 1430 1433 1437 1439 1442 1444 1446 1447 1449 1451 1453 1455 1457 1459 1460 1461 1462 1463 1463 1463 1463 1462 1462 1461 1459 1458 1456 1454 1452
1441 1444 1452 1454 1451 1449 1455 1456 1452 1447 1444 1434 1428 1425 1429 1431 1433 1436 1438 1441 1443 1445 1446 1447 1449 1451 1453 1454 1456 1457 1458 1458 1459 1459 1459 1458 1458 1457 1456 1455 1453 1451 1449 1447
1440 1441 1444 1448 1453 1453 1450 1448 1448 1444 1447 1444 1428 1429 1433 1434 1435 1437 1439 1441 1442 1443 1445 1446 1447 1449 1450 1451 1453 1454 1454 1455 1455 1455 1455 1454 1454 1453 1452 1450 1449 1446 1444 1441
1438 1441 1441 1443 1452 1456 1453 1451 1451 1450 1445 1440 1430 1429 1434 1435 1436 1437 1439 1441 1442 1443 1444 1445 1446 1447 1448 1449 1450 1450 1451 1451 1451 1451 1451 1451 1450 1449 1447 1446 1444 1441 1439 1436
1436 1437 1432 1425 1425 1437 1446 1449 1450 1447 1440 1435 1430 1427 1432 1433 1435 1437 1439 1440 1441 1442 1443 1444 1444 1445 1446 1447 1447 1447 1448 1448 1448 1448 1447 1447 1446 1444 1443 1441 1439 1436 1434 1431
1435 1433 1434 1432 1434 1436 1436 1440 1444 1443 1435 1431 1426 1430 1429 1431 1434 1436 1438 1439 1440 1441 1441 1442 1443 1443 1444 1444 1444 1445 1445 1445 1445 1444 1444 1443 1441 1440 1438 1436 1434 1431 1428 1425
1435 1434 1433 1433 1434 1435 1435 1435 1437 1437 1436 1433 1432 1430 1429 1432 1434 1436 1437 1438 1439 1439 1439 1440 1440 1440 1441 1441 1441 1441 1442 1441 1441 1440 1440 1439 1437 1435 1433 1431 1429 1426 1423 1420
1433 1434 1431 1428 1433 1433 1428 1426 1431 1431 1429 1429 1427 1425 1429 1431 1432 1433 1434 1436 1436 1437 1437 1437 1437 1438 1438 1438 1438 1438 1438 1438 1438 1437 1436 1434 1433 1431 1429 1427 1424 1421 1417 1414
1432 1432 1430 1429 1434 1430 1416 1420 1422 1424 1425 1426 1425 1425 1427 1428 1430 1431 1432 1433 1434 1435 1435 1435 1435 1435 1435 1435 1435 1435 1435 1435 1434 1433 1432 1431 1429 1427 1424 1422 1419 1416 1413 1409
1429 1430 1429 1427 1423 1416 1416 1420 1422 1423 1423 1423 1424 1424 1426 1428 1429 1429 1430 1430 1431 1432 1432 1432 1432 1432 1432 1432 1432 1432 1432 1431 1431 1430 1428 1427 1425 1422 1420 1417 1415 1412 1408 1404
1428 1429 1428 1426 1420 1415 1412 1418 1420 1422 1420 1419 1421 1422 1424 1426 1425 1426 1428 1428 1428 1429 1430 1430 1430 1430 1430 1430 1430 1429 1429 1428 1427 1426 1425 1423 1421 1419 1416 1413 1410 1407 1404 1400
1425 1425 1425 1422 1418 1412 1416 1419 1420 1420 1416 1419 1419 1420 1422 1424 1424 1426 1426 1426 1426 1427 1427 1428 1428 1428 1428 1427 1427 1426 1426 1425 1424 1423 1421 1419 1417 1415 1412 1409 1406 1403 1400 1396
1417 1418 1421 1420 1417 1416 1418 1419 1419 1417 1419 1419 1419 1420 1422 1422 1424 1424 1425 1425 1425 1425 1425 1426 1426 1425 1425 1425 1424 1423 1423 1422 1420 1419 1417 1416 1414 1411 1409 1406 1403 1399 1396 1392
1416 1415 1414 1415 1415 1416 1417 1417 1418 1418 1419 1419 1419 1420 1421 1421 1422 1423 1423 1423 1424 1424 1424 1424 1424 1424 1423 1423 1422 1421 1420 1418 1417 1416 1414 1412 1410 1408 1405 1402 1399 1396 1392 1389
1416 1417 1416 1415 1415 1416 1417 1417 1417 1418 1418 1418 1419 1419 1420 1420 1421 1422 1422 1422 1422 1422 1422 1422 1422 1422 1421 1421 1420 1418 1417 1415 1414 1412 1411 1409 1407 1404 1402 1399 1396 1393 1389 1386
1414 1416 1415 1414 1414 1415 1415 1415 1416 1417 1418 1418 1418 1418 1418 1419 1420 1420 1420 1421 1421 1421 1421 1421 1420 1420 1419 1418 1417 1415 1414 1413 1411 1410 1408 1406 1404 1401 1398 1396 1393 1390 1387 1384
1415 1416 1413 1410 1413 1414 1414 1414 1415 1415 1416 1416 1416 1417 1417 1418 1418 1419 1419 1419 1419 1419 1419 1419 1418 1417 1416 1415 1414 1413 1411 1410 1408 1407 1405 1403 1400 1398 1395 1392 1390 1387 1385 1381